Terminal Aerodrome Forecast
Issued by NWS

Home | Current Version | Previous Version | Text Only | Print | Product List | Glossary On
Versions: 1 2 3 4 5 6 7 8 9 10 11 12 13 14 15 16 17 18 19 20 21 22 23 24 25 26 27 28 29 30 31 32
000
FTPA31 PHFO 200100 AAA
TAFMDY
TAF AMD
PMDY 200106Z 2001/2024 24017G25KT P6SM VCSH SCT018 BKN035
     FM200300 27015G25KT 1 1/2SM RA BKN015 BKN025 OVC050
     FM200600 31015G22KT 6SM RA BKN015 BKN025 OVC050
     FM201200 33015G25KT P6SM SCT015 BKN035
      AMD LTD TO CLD AND WIND=

USA.gov is the U.S. government's official web portal to all federal, state and local government web resources and services.